| time (UTC) | temp F | wind direction | speed MPH | gust MPH | rain 1hr in | rain 24hr in | rain mn in | humidity % | barometer mb |
| 20260508025617 | 66 | 344 | 4.0 | 5.0 | 0.00 | 0.00 | 0.00 | 15 | 814.4 |
| 20260508025115 | 69 | 244 | 3.0 | 3.0 | 0.00 | 0.00 | 0.00 | 16 | 814.6 |
| 20260508024610 | 69 | 0 | 4.0 | 5.0 | 0.00 | 0.00 | 0.00 | 12 | 814.3 |
| 20260508024108 | 69 | 39 | 6.0 | 6.0 | 0.00 | 0.00 | 0.00 | 12 | 814.2 |
| 20260508023604 | 69 | 33 | 4.0 | 5.0 | 0.00 | 0.00 | 0.00 | 13 | 814.3 |
| 20260508023102 | 70 | 353 | 5.0 | 7.0 | 0.00 | 0.00 | 0.00 | 13 | 814.3 |
| 20260508022557 | 69 | 2 | 6.0 | 7.0 | 0.00 | 0.00 | 0.00 | 13 | 814.4 |
| 20260508022055 | 70 | 17 | 7.0 | 8.0 | 0.00 | 0.00 | 0.00 | 13 | 814.1 |
| 20260508021550 | 70 | 343 | 5.0 | 6.0 | 0.00 | 0.00 | 0.00 | 13 | 814.2 |
| 20260508021046 | 70 | 26 | 5.0 | 7.0 | 0.00 | 0.00 | 0.00 | 13 | 814.3 |
| 20260508020544 | 70 | 359 | 6.0 | 8.0 | 0.00 | 0.00 | 0.00 | 14 | 813.9 |
| 20260508020042 | 70 | 12 | 6.0 | 8.0 | 0.00 | 0.00 | 0.00 | 13 | 814.0 |
| 20260508015539 | 70 | 24 | 4.0 | 6.0 | 0.00 | 0.00 | 0.00 | 14 | 813.9 |
| 20260508015036 | 70 | 3 | 7.0 | 8.0 | 0.00 | 0.00 | 0.00 | 15 | 813.9 |
| 20260508014532 | 69 | 21 | 9.0 | 11.0 | 0.00 | 0.00 | 0.00 | 15 | 814.0 |
| 20260508014028 | 69 | 343 | 8.0 | 10.0 | 0.00 | 0.00 | 0.00 | 16 | 814.2 |
| 20260508013524 | 69 | 6 | 6.0 | 8.0 | 0.00 | 0.00 | 0.00 | 16 | 814.0 |
| 20260508013022 | 69 | 20 | 8.0 | 11.0 | 0.00 | 0.00 | 0.00 | 17 | 814.1 |
| 20260508012519 | 69 | 17 | 7.0 | 9.0 | 0.00 | 0.00 | 0.00 | 17 | 814.0 |
| 20260508012016 | 69 | 45 | 3.0 | 3.0 | 0.00 | 0.00 | 0.00 | 17 | 814.2 |
| 20260508011515 | 69 | 0 | 8.0 | 9.0 | 0.00 | 0.00 | 0.00 | 15 | 814.3 |
| 20260508011011 | 69 | 359 | 4.0 | 7.0 | 0.00 | 0.00 | 0.00 | 16 | 814.0 |
| 20260508010508 | 69 | 25 | 3.0 | 5.0 | 0.00 | 0.00 | 0.00 | 15 | 813.9 |
| 20260508010006 | 68 | 4 | 7.0 | 9.0 | 0.00 | 0.00 | 0.00 | 15 | 813.6 |
| 20260508005502 | 69 | 19 | 2.0 | 3.0 | 0.00 | 0.00 | 0.00 | 14 | 813.7 |
| 20260508004959 | 69 | 351 | 3.0 | 3.0 | 0.00 | 0.00 | 0.00 | 13 | 813.2 |
| 20260508004454 | 68 | 10 | 3.0 | 3.0 | 0.00 | 0.00 | 0.00 | 15 | 813.3 |
| 20260508003952 | 68 | 1 | 2.0 | 2.0 | 0.00 | 0.00 | 0.00 | 15 | 813.5 |
| 20260508003448 | 70 | 39 | 3.0 | 3.0 | 0.00 | 0.00 | 0.00 | 12 | 813.0 |
| 20260508002945 | 69 | 6 | 3.0 | 3.0 | 0.00 | 0.00 | 0.00 | 11 | 813.0 |
| 20260508002441 | 69 | 337 | 3.0 | 3.0 | 0.00 | 0.00 | 0.00 | 12 | 812.9 |
| 20260508001937 | 69 | 312 | 0.0 | 1.0 | 0.00 | 0.00 | 0.00 | 13 | 812.6 |
| 20260508001435 | 70 | 299 | 1.0 | 1.0 | 0.00 | 0.00 | 0.00 | 12 | 812.5 |
| 20260508000931 | 70 | 319 | 2.0 | 3.0 | 0.00 | 0.00 | 0.00 | 11 | 812.4 |
| 20260508000427 | 70 | 288 | 1.0 | 2.0 | 0.00 | 0.00 | 0.00 | 11 | 812.1 |
| 20260507235924 | 71 | 352 | 3.0 | 3.0 | 0.00 | 0.00 | 0.00 | 10 | 812.1 |
| 20260507235421 | 72 | 359 | 5.0 | 7.0 | 0.00 | 0.00 | 0.00 | 10 | 812.1 |
| 20260507234918 | 72 | 334 | 5.0 | 6.0 | 0.00 | 0.00 | 0.00 | 10 | 812.0 |
| 20260507234415 | 72 | 351 | 3.0 | 3.0 | 0.00 | 0.00 | 0.00 | 10 | 812.1 |
| 20260507233911 | 72 | 323 | 3.0 | 5.0 | 0.00 | 0.00 | 0.00 | 10 | 811.7 |
| 20260507233409 | 72 | 3 | 5.0 | 6.0 | 0.00 | 0.00 | 0.00 | 10 | 811.7 |
| 20260507232907 | 72 | 36 | 6.0 | 7.0 | 0.00 | 0.00 | 0.00 | 10 | 811.7 |
| 20260507232403 | 72 | 20 | 7.0 | 8.0 | 0.00 | 0.00 | 0.00 | 10 | 811.7 |
| 20260507231901 | 72 | 39 | 4.0 | 6.0 | 0.00 | 0.00 | 0.00 | 10 | 811.6 |
| 20260507231357 | 72 | 344 | 5.0 | 7.0 | 0.00 | 0.00 | 0.00 | 10 | 811.5 |
| 20260507230853 | 72 | 3 | 8.0 | 9.0 | 0.00 | 0.00 | 0.00 | 10 | 811.6 |
| 20260507230351 | 72 | 356 | 6.0 | 7.0 | 0.00 | 0.00 | 0.00 | 10 | 811.4 |
| 20260507225850 | 71 | 0 | 2.0 | 3.0 | 0.00 | 0.00 | 0.00 | 11 | 811.5 |
| 20260507225347 | 71 | 0 | 2.0 | 2.0 | 0.00 | 0.00 | 0.00 | 11 | 811.5 |
| 20260507224843 | 72 | 312 | 2.0 | 2.0 | 0.00 | 0.00 | 0.00 | 12 | 811.5 |
| 20260507224340 | 73 | 317 | 3.0 | 3.0 | 0.00 | 0.00 | 0.00 | 10 | 811.4 |
| 20260507223836 | 73 | 295 | 4.0 | 5.0 | 0.00 | 0.00 | 0.00 | 10 | 811.7 |
| 20260507223332 | 72 | 12 | 3.0 | 5.0 | 0.00 | 0.00 | 0.00 | 10 | 811.6 |
| 20260507222829 | 72 | 342 | 5.0 | 6.0 | 0.00 | 0.00 | 0.00 | 10 | 811.3 |
| 20260507222325 | 72 | 320 | 4.0 | 5.0 | 0.00 | 0.00 | 0.00 | 10 | 811.4 |
| 20260507221823 | 73 | 307 | 3.0 | 3.0 | 0.00 | 0.00 | 0.00 | 10 | 811.1 |
| 20260507221319 | 73 | 320 | 3.0 | 3.0 | 0.00 | 0.00 | 0.00 | 11 | 811.0 |
| 20260507220815 | 73 | 325 | 5.0 | 6.0 | 0.00 | 0.00 | 0.00 | 10 | 811.2 |
| 20260507220314 | 73 | 3 | 3.0 | 3.0 | 0.00 | 0.00 | 0.00 | 10 | 811.4 |
| 20260507215810 | 73 | 340 | 2.0 | 2.0 | 0.00 | 0.00 | 0.00 | 12 | 811.1 |
| 20260507215307 | 74 | 346 | 3.0 | 3.0 | 0.00 | 0.00 | 0.00 | 10 | 811.1 |
| 20260507214804 | 76 | 321 | 3.0 | 3.0 | 0.00 | 0.00 | 0.00 | 10 | 811.1 |
| 20260507214302 | 75 | 293 | 3.0 | 3.0 | 0.00 | 0.00 | 0.00 | 10 | 811.1 |
| 20260507213756 | 75 | 321 | 4.0 | 6.0 | 0.00 | 0.00 | 0.00 | 10 | 811.1 |
| 20260507213254 | 76 | 311 | 3.0 | 3.0 | 0.00 | 0.00 | 0.00 | 10 | 811.0 |
| 20260507212750 | 77 | 293 | 3.0 | 3.0 | 0.00 | 0.00 | 0.00 | 10 | 811.0 |
| 20260507212246 | 78 | 330 | 5.0 | 6.0 | 0.00 | 0.00 | 0.00 | 10 | 811.0 |
| 20260507211743 | 79 | 295 | 3.0 | 3.0 | 0.00 | 0.00 | 0.00 | 10 | 811.1 |
| 20260507211239 | 79 | 296 | 3.0 | 3.0 | 0.00 | 0.00 | 0.00 | 10 | 810.7 |
| 20260507210736 | 80 | 286 | 3.0 | 3.0 | 0.00 | 0.00 | 0.00 | 10 | 810.7 |
| 20260507210233 | 80 | 308 | 4.0 | 5.0 | 0.00 | 0.00 | 0.00 | 10 | 810.7 |
| 20260507205730 | 80 | 319 | 4.0 | 5.0 | 0.00 | 0.00 | 0.00 | 10 | 810.7 |
| 20260507205227 | 80 | 280 | 3.0 | 6.0 | 0.00 | 0.00 | 0.00 | 10 | 810.6 |
| 20260507204723 | 80 | 288 | 5.0 | 6.0 | 0.00 | 0.00 | 0.00 | 10 | 810.6 |
| 20260507204221 | 80 | 283 | 2.0 | 3.0 | 0.00 | 0.00 | 0.00 | 10 | 810.8 |
| 20260507203719 | 80 | 285 | 4.0 | 5.0 | 0.00 | 0.00 | 0.00 | 10 | 810.7 |
| 20260507203216 | 80 | 285 | 3.0 | 3.0 | 0.00 | 0.00 | 0.00 | 10 | 810.7 |
| 20260507202712 | 80 | 251 | 1.0 | 1.0 | 0.00 | 0.00 | 0.00 | 10 | 810.7 |
| 20260507202208 | 80 | 237 | 5.0 | 6.0 | 0.00 | 0.00 | 0.00 | 10 | 810.4 |
| 20260507201703 | 81 | 250 | 5.0 | 6.0 | 0.00 | 0.00 | 0.00 | 10 | 810.6 |
| 20260507201200 | 82 | 272 | 3.0 | 5.0 | 0.00 | 0.00 | 0.00 | 10 | 810.6 |
| 20260507200656 | 82 | 244 | 11.0 | 14.0 | 0.00 | 0.00 | 0.00 | 10 | 810.4 |
| 20260507200152 | 81 | 231 | 7.0 | 9.0 | 0.00 | 0.00 | 0.00 | 10 | 810.6 |
| 20260507195649 | 80 | 255 | 4.0 | 6.0 | 0.00 | 0.00 | 0.00 | 10 | 810.6 |
| 20260507195146 | 79 | 281 | 3.0 | 6.0 | 0.00 | 0.00 | 0.00 | 10 | 810.6 |
| 20260507194643 | 80 | 305 | 7.0 | 8.0 | 0.00 | 0.00 | 0.00 | 10 | 810.6 |
| 20260507194138 | 80 | 283 | 3.0 | 3.0 | 0.00 | 0.00 | 0.00 | 10 | 810.8 |
| 20260507193635 | 81 | 250 | 10.0 | 14.0 | 0.00 | 0.00 | 0.00 | 10 | 810.6 |
| 20260507193133 | 82 | 231 | 8.0 | 13.0 | 0.00 | 0.00 | 0.00 | 10 | 810.3 |
| 20260507192629 | 82 | 270 | 9.0 | 11.0 | 0.00 | 0.00 | 0.00 | 10 | 810.6 |
| 20260507192126 | 82 | 230 | 5.0 | 7.0 | 0.00 | 0.00 | 0.00 | 10 | 810.5 |
| 20260507191621 | 82 | 325 | 14.0 | 20.0 | 0.00 | 0.00 | 0.00 | 10 | 810.8 |
| 20260507191118 | 82 | 273 | 8.0 | 13.0 | 0.00 | 0.00 | 0.00 | 10 | 810.5 |
| 20260507190615 | 82 | 271 | 12.0 | 13.0 | 0.00 | 0.00 | 0.00 | 10 | 810.7 |
| 20260507190115 | 82 | 200 | 8.0 | 10.0 | 0.00 | 0.00 | 0.00 | 10 | 810.8 |
| 20260507185613 | 82 | 212 | 9.0 | 13.0 | 0.00 | 0.00 | 0.00 | 10 | 810.7 |
| 20260507185108 | 83 | 212 | 7.0 | 9.0 | 0.00 | 0.00 | 0.00 | 10 | 811.0 |
| 20260507184607 | 83 | 165 | 5.0 | 6.0 | 0.00 | 0.00 | 0.00 | 10 | 810.8 |
| 20260507184104 | 83 | 186 | 3.0 | 3.0 | 0.00 | 0.00 | 0.00 | 10 | 811.1 |
| 20260507183600 | 84 | 270 | 5.0 | 6.0 | 0.00 | 0.00 | 0.00 | 10 | 811.0 |
| 20260507183057 | 84 | 300 | 2.0 | 3.0 | 0.00 | 0.00 | 0.00 | 10 | 811.4 |
| 20260507182554 | 84 | 233 | 0.0 | 1.0 | 0.00 | 0.00 | 0.00 | 10 | 811.3 |
| 20260507182049 | 82 | 342 | 3.0 | 3.0 | 0.00 | 0.00 | 0.00 | 10 | 811.3 |
| 20260507181547 | 82 | 220 | 1.0 | 2.0 | 0.00 | 0.00 | 0.00 | 10 | 811.3 |
| 20260507181043 | 84 | 156 | 2.0 | 2.0 | 0.00 | 0.00 | 0.00 | 10 | 811.6 |
| 20260507180539 | 84 | 293 | 1.0 | 2.0 | 0.00 | 0.00 | 0.00 | 10 | 811.6 |
| 20260507180037 | 84 | 210 | 1.0 | 2.0 | 0.00 | 0.00 | 0.00 | 10 | 811.7 |
| 20260507175532 | 84 | 106 | 4.0 | 5.0 | 0.00 | 0.00 | 0.00 | 10 | 811.9 |
| 20260507175030 | 82 | 167 | 3.0 | 5.0 | 0.00 | 0.00 | 0.00 | 10 | 811.9 |
| 20260507174527 | 82 | 180 | 4.0 | 5.0 | 0.00 | 0.00 | 0.00 | 10 | 812.0 |
| 20260507174025 | 82 | 183 | 3.0 | 3.0 | 0.00 | 0.00 | 0.00 | 10 | 812.0 |
| 20260507173521 | 82 | 318 | 1.0 | 1.0 | 0.00 | 0.00 | 0.00 | 10 | 812.1 |
| 20260507173019 | 82 | 38 | 3.0 | 3.0 | 0.00 | 0.00 | 0.00 | 10 | 812.4 |
| 20260507172515 | 83 | 282 | 1.0 | 1.0 | 0.00 | 0.00 | 0.00 | 10 | 812.6 |
| 20260507172012 | 81 | 57 | 6.0 | 7.0 | 0.00 | 0.00 | 0.00 | 10 | 813.0 |
| 20260507171507 | 80 | 317 | 1.0 | 2.0 | 0.00 | 0.00 | 0.00 | 10 | 812.7 |
| 20260507171005 | 80 | 52 | 2.0 | 2.0 | 0.00 | 0.00 | 0.00 | 10 | 812.9 |
| 20260507170501 | 81 | 91 | 3.0 | 5.0 | 0.00 | 0.00 | 0.00 | 10 | 813.1 |
| 20260507165958 | 79 | 132 | 2.0 | 2.0 | 0.00 | 0.00 | 0.00 | 10 | 812.9 |
| 20260507165454 | 80 | 190 | 4.0 | 5.0 | 0.00 | 0.00 | 0.00 | 10 | 813.3 |
| 20260507164950 | 82 | 265 | 1.0 | 1.0 | 0.00 | 0.00 | 0.00 | 10 | 813.6 |
| 20260507164447 | 81 | 317 | 1.0 | 2.0 | 0.00 | 0.00 | 0.00 | 10 | 813.3 |
| 20260507163943 | 79 | 197 | 3.0 | 3.0 | 0.00 | 0.00 | 0.00 | 10 | 813.7 |
| 20260507163441 | 79 | 135 | 4.0 | 5.0 | 0.00 | 0.00 | 0.00 | 10 | 813.9 |
| 20260507162938 | 78 | 46 | 3.0 | 3.0 | 0.00 | 0.00 | 0.00 | 10 | 814.0 |
| 20260507162433 | 78 | 153 | 4.0 | 5.0 | 0.00 | 0.00 | 0.00 | 10 | 814.0 |
| 20260507161931 | 79 | 28 | 1.0 | 1.0 | 0.00 | 0.00 | 0.00 | 10 | 814.0 |
| 20260507161427 | 78 | 305 | 2.0 | 2.0 | 0.00 | 0.00 | 0.00 | 10 | 814.0 |
| 20260507160924 | 77 | 190 | 1.0 | 1.0 | 0.00 | 0.00 | 0.00 | 10 | 814.1 |
| 20260507160420 | 77 | 91 | 0.0 | 1.0 | 0.00 | 0.00 | 0.00 | 12 | 814.4 |
| 20260507155915 | 77 | 109 | 3.0 | 6.0 | 0.00 | 0.00 | 0.00 | 15 | 814.2 |
| 20260507155412 | 76 | 211 | 2.0 | 2.0 | 0.00 | 0.00 | 0.00 | 15 | 814.4 |
| 20260507154909 | 77 | 189 | 3.0 | 3.0 | 0.00 | 0.00 | 0.00 | 15 | 814.8 |
| 20260507154406 | 75 | 155 | 3.0 | 5.0 | 0.00 | 0.00 | 0.00 | 16 | 814.6 |
| 20260507153903 | 75 | 214 | 1.0 | 2.0 | 0.00 | 0.00 | 0.00 | 19 | 815.0 |
| 20260507153359 | 73 | 187 | 3.0 | 3.0 | 0.00 | 0.00 | 0.00 | 19 | 815.0 |
| 20260507152856 | 74 | 161 | 4.0 | 5.0 | 0.00 | 0.00 | 0.00 | 18 | 815.1 |
| 20260507152352 | 72 | 172 | 4.0 | 5.0 | 0.00 | 0.00 | 0.00 | 21 | 815.2 |
| 20260507151848 | 73 | 204 | 4.0 | 5.0 | 0.00 | 0.00 | 0.00 | 19 | 815.4 |
| 20260507151344 | 73 | 264 | 1.0 | 2.0 | 0.00 | 0.00 | 0.00 | 19 | 815.4 |
| 20260507150842 | 73 | 188 | 3.0 | 3.0 | 0.00 | 0.00 | 0.00 | 20 | 815.7 |
| 20260507150338 | 71 | 61 | 1.0 | 1.0 | 0.00 | 0.00 | 0.00 | 20 | 815.6 |
| 20260507145834 | 72 | 151 | 1.0 | 2.0 | 0.00 | 0.00 | 0.00 | 23 | 815.7 |
| 20260507145331 | 71 | 244 | 1.0 | 1.0 | 0.00 | 0.00 | 0.00 | 21 | 815.7 |
| 20260507144828 | 70 | 170 | 2.0 | 3.0 | 0.00 | 0.00 | 0.00 | 24 | 816.0 |
| 20260507144325 | 71 | 140 | 4.0 | 5.0 | 0.00 | 0.00 | 0.00 | 23 | 815.8 |
| 20260507143822 | 71 | 241 | 1.0 | 2.0 | 0.00 | 0.00 | 0.00 | 25 | 816.1 |
| 20260507143319 | 71 | 225 | 1.0 | 2.0 | 0.00 | 0.00 | 0.00 | 24 | 816.0 |
| 20260507142815 | 70 | 199 | 0.0 | 0.0 | 0.00 | 0.00 | 0.00 | 24 | 816.3 |
| 20260507142312 | 69 | 262 | 1.0 | 1.0 | 0.00 | 0.00 | 0.00 | 27 | 816.3 |
| 20260507141809 | 68 | 207 | 2.0 | 2.0 | 0.00 | 0.00 | 0.00 | 28 | 816.3 |
| 20260507141305 | 68 | 273 | 1.0 | 2.0 | 0.00 | 0.00 | 0.00 | 29 | 816.4 |
| 20260507140801 | 67 | 248 | 2.0 | 3.0 | 0.00 | 0.00 | 0.00 | 29 | 816.4 |
| 20260507140259 | 68 | 222 | 2.0 | 2.0 | 0.00 | 0.00 | 0.00 | 30 | 816.5 |
| 20260507135756 | 67 | 187 | 2.0 | 2.0 | 0.00 | 0.00 | 0.00 | 29 | 816.4 |
| 20260507135253 | 67 | 232 | 2.0 | 2.0 | 0.00 | 0.00 | 0.00 | 25 | 816.8 |
| 20260507134749 | 68 | 140 | 3.0 | 3.0 | 0.00 | 0.00 | 0.00 | 28 | 816.5 |
| 20260507134246 | 66 | 219 | 0.0 | 1.0 | 0.00 | 0.00 | 0.00 | 27 | 816.4 |
| 20260507133742 | 68 | 131 | 1.0 | 3.0 | 0.00 | 0.00 | 0.00 | 27 | 816.7 |
| 20260507133239 | 68 | 336 | 1.0 | 1.0 | 0.00 | 0.00 | 0.00 | 25 | 816.7 |
| 20260507132736 | 67 | 188 | 1.0 | 2.0 | 0.00 | 0.00 | 0.00 | 29 | 816.8 |
| 20260507132233 | 65 | 221 | 1.0 | 1.0 | 0.00 | 0.00 | 0.00 | 32 | 816.7 |
| 20260507131730 | 64 | 169 | 0.0 | 0.0 | 0.00 | 0.00 | 0.00 | 31 | 816.6 |
| 20260507131227 | 64 | 234 | 0.0 | 1.0 | 0.00 | 0.00 | 0.00 | 34 | 816.7 |
| 20260507130723 | 64 | 186 | 1.0 | 1.0 | 0.00 | 0.00 | 0.00 | 35 | 816.4 |
| 20260507130221 | 64 | 189 | 1.0 | 2.0 | 0.00 | 0.00 | 0.00 | 36 | 816.7 |
| 20260507125720 | 62 | 243 | 0.0 | 0.0 | 0.00 | 0.00 | 0.00 | 33 | 816.9 |
| 20260507125217 | 61 | 196 | 1.0 | 1.0 | 0.00 | 0.00 | 0.00 | 38 | 816.7 |
| 20260507124713 | 62 | 233 | 1.0 | 1.0 | 0.00 | 0.00 | 0.00 | 36 | 816.8 |
| 20260507124211 | 62 | 186 | 3.0 | 3.0 | 0.00 | 0.00 | 0.00 | 36 | 816.5 |
| 20260507123709 | 62 | 223 | 0.0 | 1.0 | 0.00 | 0.00 | 0.00 | 33 | 816.5 |
| 20260507123206 | 60 | 222 | 1.0 | 1.0 | 0.00 | 0.00 | 0.00 | 36 | 816.3 |
| 20260507122701 | 64 | 265 | 0.0 | 1.0 | 0.00 | 0.00 | 0.00 | 32 | 816.2 |
| 20260507122157 | 62 | 304 | 0.0 | 0.0 | 0.00 | 0.00 | 0.00 | 29 | 816.5 |
| 20260507121653 | 59 | 304 | 0.0 | 0.0 | 0.00 | 0.00 | 0.00 | 34 | 816.5 |
| 20260507121149 | 58 | 313 | 2.0 | 2.0 | 0.00 | 0.00 | 0.00 | 36 | 816.3 |
| 20260507120646 | 59 | 342 | 1.0 | 1.0 | 0.00 | 0.00 | 0.00 | 35 | 816.7 |
| 20260507120142 | 61 | 341 | 1.0 | 1.0 | 0.00 | 0.00 | 0.00 | 35 | 816.9 |
| 20260507115638 | 60 | 342 | 0.0 | 0.0 | 0.00 | 0.00 | 0.00 | 37 | 816.8 |
| 20260507115134 | 58 | 342 | 0.0 | 0.0 | 0.00 | 0.00 | 0.00 | 38 | 817.2 |
| 20260507114630 | 57 | 342 | 0.0 | 1.0 | 0.00 | 0.00 | 0.00 | 39 | 817.0 |
| 20260507114128 | 58 | 343 | 1.0 | 1.0 | 0.00 | 0.00 | 0.00 | 36 | 817.0 |
| 20260507113625 | 56 | 343 | 1.0 | 1.0 | 0.00 | 0.00 | 0.00 | 36 | 817.0 |
| 20260507113122 | 52 | 75 | 2.0 | 2.0 | 0.00 | 0.00 | 0.00 | 41 | 816.8 |
| 20260507112620 | 53 | 80 | 0.0 | 0.0 | 0.00 | 0.00 | 0.00 | 39 | 816.8 |
| 20260507112116 | 53 | 86 | 0.0 | 1.0 | 0.00 | 0.00 | 0.00 | 40 | 816.8 |
| 20260507111614 | 53 | 340 | 1.0 | 1.0 | 0.00 | 0.00 | 0.00 | 37 | 816.7 |
| 20260507111110 | 54 | 345 | 1.0 | 1.0 | 0.00 | 0.00 | 0.00 | 35 | 816.7 |
| 20260507110606 | 54 | 330 | 2.0 | 2.0 | 0.00 | 0.00 | 0.00 | 33 | 816.6 |
| 20260507110103 | 55 | 345 | 1.0 | 1.0 | 0.00 | 0.00 | 0.00 | 31 | 816.6 |
| 20260507105600 | 55 | 332 | 1.0 | 2.0 | 0.00 | 0.00 | 0.00 | 32 | 816.6 |
| 20260507105056 | 53 | 321 | 2.0 | 2.0 | 0.00 | 0.00 | 0.00 | 32 | 816.5 |
| 20260507104553 | 54 | 300 | 1.0 | 1.0 | 0.00 | 0.00 | 0.00 | 33 | 816.6 |
| 20260507104050 | 52 | 342 | 3.0 | 3.0 | 0.00 | 0.00 | 0.00 | 32 | 816.1 |
| 20260507103546 | 54 | 5 | 3.0 | 3.0 | 0.00 | 0.00 | 0.00 | 37 | 816.3 |
| 20260507103043 | 52 | 352 | 2.0 | 2.0 | 0.00 | 0.00 | 0.00 | 40 | 816.4 |
| 20260507102539 | 52 | 2 | 3.0 | 3.0 | 0.00 | 0.00 | 0.00 | 41 | 816.5 |
| 20260507102035 | 53 | 15 | 0.0 | 0.0 | 0.00 | 0.00 | 0.00 | 40 | 816.3 |
| 20260507101531 | 53 | 16 | 3.0 | 3.0 | 0.00 | 0.00 | 0.00 | 40 | 816.2 |
| 20260507101027 | 53 | 29 | 1.0 | 1.0 | 0.00 | 0.00 | 0.00 | 39 | 816.3 |
| 20260507100525 | 53 | 62 | 3.0 | 3.0 | 0.00 | 0.00 | 0.00 | 38 | 816.3 |
| 20260507100023 | 54 | 106 | 1.0 | 1.0 | 0.00 | 0.00 | 0.00 | 38 | 816.2 |
| 20260507095521 | 55 | 78 | 3.0 | 3.0 | 0.00 | 0.00 | 0.00 | 34 | 816.1 |
| 20260507095017 | 56 | 82 | 3.0 | 3.0 | 0.00 | 0.00 | 0.00 | 34 | 816.2 |
| 20260507094513 | 56 | 59 | 3.0 | 5.0 | 0.00 | 0.00 | 0.00 | 32 | 815.8 |
| 20260507094010 | 55 | 358 | 2.0 | 2.0 | 0.00 | 0.00 | 0.00 | 31 | 815.8 |
| 20260507093508 | 54 | 354 | 3.0 | 3.0 | 0.00 | 0.00 | 0.00 | 32 | 815.8 |
| 20260507093007 | 56 | 354 | 3.0 | 3.0 | 0.00 | 0.00 | 0.00 | 28 | 815.8 |
| 20260507092502 | 56 | 3 | 3.0 | 3.0 | 0.00 | 0.00 | 0.00 | 28 | 815.7 |
| 20260507091959 | 57 | 42 | 2.0 | 3.0 | 0.00 | 0.00 | 0.00 | 28 | 815.7 |
| 20260507091456 | 57 | 40 | 3.0 | 3.0 | 0.00 | 0.00 | 0.00 | 22 | 815.6 |
| 20260507090952 | 56 | 29 | 3.0 | 3.0 | 0.00 | 0.00 | 0.00 | 28 | 815.7 |
| 20260507090448 | 55 | 354 | 1.0 | 1.0 | 0.00 | 0.00 | 0.00 | 34 | 816.0 |
| 20260507085944 | 56 | 345 | 3.0 | 3.0 | 0.00 | 0.00 | 0.00 | 31 | 815.7 |
| 20260507085442 | 52 | 345 | 3.0 | 3.0 | 0.00 | 0.00 | 0.00 | 36 | 815.8 |
| 20260507084938 | 53 | 346 | 2.0 | 2.0 | 0.00 | 0.00 | 0.00 | 40 | 816.0 |
| 20260507084435 | 53 | 0 | 2.0 | 2.0 | 0.00 | 0.00 | 0.00 | 38 | 815.7 |
| 20260507083932 | 55 | 351 | 2.0 | 2.0 | 0.00 | 0.00 | 0.00 | 36 | 815.7 |
| 20260507083429 | 53 | 338 | 2.0 | 2.0 | 0.00 | 0.00 | 0.00 | 37 | 816.0 |
| 20260507082925 | 53 | 349 | 3.0 | 3.0 | 0.00 | 0.00 | 0.00 | 38 | 815.7 |
| 20260507082421 | 54 | 353 | 2.0 | 2.0 | 0.00 | 0.00 | 0.00 | 41 | 815.6 |
| 20260507081918 | 52 | 352 | 2.0 | 2.0 | 0.00 | 0.00 | 0.00 | 42 | 815.8 |
| 20260507081414 | 54 | 321 | 2.0 | 2.0 | 0.00 | 0.00 | 0.00 | 37 | 815.6 |
| 20260507080911 | 53 | 313 | 2.0 | 2.0 | 0.00 | 0.00 | 0.00 | 42 | 815.6 |
| 20260507080407 | 55 | 2 | 3.0 | 3.0 | 0.00 | 0.00 | 0.00 | 39 | 815.6 |
| 20260507075903 | 55 | 27 | 2.0 | 2.0 | 0.00 | 0.00 | 0.00 | 37 | 815.6 |
| 20260507075359 | 56 | 57 | 1.0 | 1.0 | 0.00 | 0.00 | 0.00 | 37 | 815.6 |
| 20260507074855 | 55 | 57 | 1.0 | 2.0 | 0.00 | 0.00 | 0.00 | 36 | 815.5 |
| 20260507074353 | 56 | 327 | 2.0 | 2.0 | 0.00 | 0.00 | 0.00 | 32 | 815.5 |
| 20260507073850 | 56 | 345 | 2.0 | 2.0 | 0.00 | 0.00 | 0.00 | 37 | 815.2 |
| 20260507073346 | 57 | 12 | 1.0 | 2.0 | 0.00 | 0.00 | 0.00 | 33 | 815.5 |
| 20260507072844 | 56 | 358 | 3.0 | 3.0 | 0.00 | 0.00 | 0.00 | 33 | 815.1 |
| 20260507072341 | 57 | 322 | 2.0 | 2.0 | 0.00 | 0.00 | 0.00 | 35 | 815.2 |
| 20260507071839 | 57 | 344 | 2.0 | 2.0 | 0.00 | 0.00 | 0.00 | 31 | 815.4 |
| 20260507071336 | 57 | 344 | 2.0 | 2.0 | 0.00 | 0.00 | 0.00 | 30 | 815.4 |
| 20260507070832 | 56 | 340 | 3.0 | 3.0 | 0.00 | 0.00 | 0.00 | 31 | 815.4 |
| 20260507070329 | 57 | 352 | 2.0 | 2.0 | 0.00 | 0.00 | 0.00 | 31 | 815.6 |
| 20260507065826 | 56 | 311 | 3.0 | 3.0 | 0.00 | 0.00 | 0.00 | 33 | 815.4 |
| 20260507065322 | 57 | 309 | 2.0 | 2.0 | 0.00 | 0.00 | 0.00 | 30 | 815.4 |
| 20260507064820 | 56 | 308 | 1.0 | 2.0 | 0.00 | 0.00 | 0.00 | 29 | 815.6 |
| 20260507064318 | 56 | 329 | 2.0 | 2.0 | 0.00 | 0.00 | 0.00 | 33 | 815.6 |
| 20260507063816 | 57 | 4 | 1.0 | 1.0 | 0.00 | 0.00 | 0.00 | 32 | 815.4 |
| 20260507063312 | 56 | 343 | 3.0 | 3.0 | 0.00 | 0.00 | 0.00 | 33 | 815.5 |
| 20260507062809 | 58 | 331 | 1.0 | 1.0 | 0.00 | 0.00 | 0.00 | 34 | 815.5 |
| 20260507062306 | 58 | 331 | 1.0 | 1.0 | 0.00 | 0.00 | 0.00 | 31 | 815.7 |
| 20260507061804 | 58 | 308 | 2.0 | 2.0 | 0.00 | 0.00 | 0.00 | 31 | 815.8 |
| 20260507061302 | 58 | 288 | 2.0 | 2.0 | 0.00 | 0.00 | 0.00 | 28 | 816.0 |
| 20260507060800 | 58 | 291 | 3.0 | 3.0 | 0.00 | 0.00 | 0.00 | 28 | 816.0 |
| 20260507060256 | 58 | 307 | 2.0 | 2.0 | 0.00 | 0.00 | 0.00 | 28 | 815.7 |
| 20260507055753 | 58 | 307 | 1.0 | 2.0 | 0.00 | 0.00 | 0.00 | 29 | 815.7 |
| 20260507055248 | 56 | 340 | 2.0 | 2.0 | 0.00 | 0.00 | 0.00 | 32 | 815.7 |
| 20260507054745 | 58 | 21 | 1.0 | 2.0 | 0.00 | 0.00 | 0.00 | 28 | 816.1 |
| 20260507054241 | 58 | 8 | 2.0 | 2.0 | 0.00 | 0.00 | 0.00 | 29 | 816.0 |
| 20260507053739 | 58 | 1 | 2.0 | 2.0 | 0.00 | 0.00 | 0.00 | 31 | 816.1 |
| 20260507053236 | 59 | 0 | 2.0 | 2.0 | 0.00 | 0.00 | 0.00 | 29 | 816.1 |
| 20260507052735 | 58 | 3 | 2.0 | 2.0 | 0.00 | 0.00 | 0.00 | 31 | 816.4 |
| 20260507052231 | 58 | 359 | 2.0 | 2.0 | 0.00 | 0.00 | 0.00 | 33 | 816.3 |
| 20260507051729 | 59 | 347 | 2.0 | 2.0 | 0.00 | 0.00 | 0.00 | 31 | 816.3 |
| 20260507051226 | 57 | 338 | 3.0 | 3.0 | 0.00 | 0.00 | 0.00 | 30 | 816.2 |
| 20260507050722 | 56 | 299 | 3.0 | 3.0 | 0.00 | 0.00 | 0.00 | 35 | 816.3 |
| 20260507050220 | 59 | 355 | 2.0 | 2.0 | 0.00 | 0.00 | 0.00 | 32 | 816.3 |
| 20260507045716 | 59 | 30 | 3.0 | 3.0 | 0.00 | 0.00 | 0.00 | 27 | 816.5 |
| 20260507045212 | 57 | 37 | 2.0 | 2.0 | 0.00 | 0.00 | 0.00 | 31 | 816.3 |
| 20260507044710 | 57 | 358 | 3.0 | 3.0 | 0.00 | 0.00 | 0.00 | 33 | 816.4 |
| 20260507044206 | 59 | 4 | 3.0 | 3.0 | 0.00 | 0.00 | 0.00 | 33 | 816.4 |
| 20260507043702 | 59 | 34 | 3.0 | 3.0 | 0.00 | 0.00 | 0.00 | 30 | 816.4 |
| 20260507043159 | 60 | 297 | 1.0 | 2.0 | 0.00 | 0.00 | 0.00 | 29 | 816.4 |
| 20260507042656 | 59 | 318 | 2.0 | 2.0 | 0.00 | 0.00 | 0.00 | 30 | 816.6 |
| 20260507042150 | 57 | 331 | 3.0 | 3.0 | 0.00 | 0.00 | 0.00 | 34 | 816.6 |
| 20260507041648 | 58 | 342 | 1.0 | 1.0 | 0.00 | 0.00 | 0.00 | 33 | 816.5 |
| 20260507041144 | 59 | 343 | 2.0 | 2.0 | 0.00 | 0.00 | 0.00 | 31 | 816.6 |
| 20260507040642 | 59 | 345 | 2.0 | 2.0 | 0.00 | 0.00 | 0.00 | 32 | 816.6 |
| 20260507040138 | 59 | 344 | 2.0 | 2.0 | 0.00 | 0.00 | 0.00 | 30 | 816.6 |
| 20260507035634 | 59 | 321 | 0.0 | 0.0 | 0.00 | 0.00 | 0.00 | 29 | 816.4 |
| 20260507035130 | 59 | 321 | 0.0 | 0.0 | 0.00 | 0.00 | 0.00 | 30 | 816.5 |
| 20260507034627 | 59 | 321 | 1.0 | 2.0 | 0.00 | 0.00 | 0.00 | 31 | 816.3 |
| 20260507034125 | 60 | 316 | 1.0 | 2.0 | 0.00 | 0.00 | 0.00 | 28 | 816.5 |
| 20260507033623 | 60 | 267 | 1.0 | 1.0 | 0.00 | 0.00 | 0.00 | 30 | 816.5 |
| 20260507033119 | 60 | 4 | 1.0 | 1.0 | 0.00 | 0.00 | 0.00 | 28 | 816.6 |
| 20260507032617 | 60 | 354 | 2.0 | 2.0 | 0.00 | 0.00 | 0.00 | 27 | 816.5 |
| 20260507032113 | 61 | 335 | 2.0 | 2.0 | 0.00 | 0.00 | 0.00 | 27 | 816.5 |
| 20260507031610 | 61 | 319 | 2.0 | 2.0 | 0.00 | 0.00 | 0.00 | 27 | 816.5 |
| 20260507031106 | 64 | 351 | 3.0 | 3.0 | 0.00 | 0.00 | 0.00 | 21 | 816.4 |
| 20260507030603 | 62 | 11 | 4.0 | 5.0 | 0.00 | 0.00 | 0.00 | 23 | 816.4 |
| 20260507030101 | 62 | 1 | 3.0 | 3.0 | 0.00 | 0.00 | 0.00 | 23 | 816.4 |